Location: Jetmore
(38.0845°N, 99.8935°W)
Time: 13:45:44
(UTC+00:00)

Envisat - Pass Details

Date: 22 September 2021
Orbit: 764 x 766 km, 98.2° (Epoch: 23 October)

Event Time Altitude Azimuth Distance (km) Brightness Sun altitude
Rises 10:51:51 0° 27° (NNE) 3,237 6.9 -19.4°
Reaches altitude 10° 10:54:37 10° 41° (NE) 2,306 6.3 -18.9°
Maximum altitude 10:58:39 24° 94° (E) 1,560 5.4 -18.1°
Drops below altitude 10° 11:02:40 10° 147° (SSE) 2,292 5.7 -17.4°
Sets 11:05:23 0° 162° (SSE) 3,213 6.3 -16.8°
